Home > Weather > Wesel > Past weeks

Flag for Germany Past Weather in Wesel, North Rhine-Westphalia, Germany — Yesterday and Last 2 Weeks

Now
63 °F

Sunny.


Feels Like: 63 °F
Forecast: 57 / 67 °F
Wind: 3 mph from North

Location: Niederrhein

Current Time: Jun 28, 2016 at 10:01:13 AM

Latest Report: Jun 28, 2016 at 9:20 AM


Visibility: 10 mi

Pressure: 30.07 "Hg

Humidity: 77%

Dew Point: 55 °F

Location of WeselLocation

Past Weather in Wesel — Graph

°F

Wesel Temperature Yesterday

Maximum temperature yesterday: 64 °F (at 4:50 PM)
Minimum temperature yesterday: 54 °F (at 11:20 PM)
Average temperature yesterday: 60 °F

High & Low Weather Summary for the Past Weeks

 TemperatureHumidityPressure
High90 °F (Jun 23, 4:50 PM)100% (Jun 13, 5:50 PM)30.27 "Hg (Jun 13, 5:50 PM)
Low52 °F (Jun 16, 5:50 AM)46% (Jun 19, 4:50 PM)29.45 "Hg (Jun 14, 4:50 PM)
Average63 °F82%29.91 "Hg
* Reported Jun 13 8:20 AM — Jun 28 8:50 AM, Wesel, Weather by CustomWeather, © 2016

Note: Actual official high and low records may vary slightly from our data, if they occured in-between our weather recording intervals... More about our weather records

Advertising

Wesel Weather History for the Previous 24 Hours

Scroll right to see more
 ConditionsComfort  
Time TempWeatherWind HumidityBarometerVisibility
8:50 AM
Tue, Jun 28
59 °FSunny.2 mph88%30.07 "Hg10 mi
8:20 AM59 °FSunny.3 mph88%30.07 "Hg10 mi
7:50 AM57 °FSunny.2 mph94%30.07 "Hg10 mi
7:20 AM57 °FSunny.No wind94%30.07 "Hg10 mi
6:50 AM55 °FClear.No wind100%30.07 "Hg10 mi
6:20 AM54 °FClear.No wind100%30.07 "Hg10 mi
5:50 AM52 °FClear.No wind100%30.09 "Hg10 mi
5:20 AM54 °FLight fog.No wind100%30.09 "Hg2 mi
4:50 AM54 °FFog.No wind100%30.09 "Hg3 mi
11:50 PM
Mon, Jun 27
55 °FClear.No wind100%30.09 "Hg4 mi
11:20 PM54 °FClear.No wind100%30.09 "Hg6 mi
10:50 PM57 °FClear.No wind94%30.09 "Hg6 mi
10:20 PM59 °FSunny.3 mph88%30.09 "Hg10 mi
9:50 PM59 °FSunny.5 mph94%30.09 "Hg10 mi
9:20 PM61 °FSunny.5 mph88%30.07 "Hg10 mi
8:50 PM63 °FSunny.7 mph83%30.07 "Hg10 mi
8:20 PM63 °FPassing clouds.5 mph83%30.07 "HgN/A
7:50 PM61 °FSunny.3 mph88%30.07 "Hg10 mi
7:20 PM61 °FPartly sunny.3 mph88%30.04 "HgN/A
6:50 PM61 °FPartly sunny.10 mph88%30.07 "HgN/A
6:20 PM61 °FLight rain. Broken clouds.12 mph94%30.04 "Hg6 mi
5:50 PM63 °FLight rain. Partly sunny.13 mph94%30.04 "Hg6 mi
5:20 PM64 °FPartly sunny.8 mph88%30.04 "HgN/A
4:50 PM64 °FPartly sunny.8 mph88%30.04 "HgN/A
4:20 PM63 °FLight rain. Partly sunny.9 mph94%30.04 "HgN/A
3:50 PM63 °FLight rain. Partly sunny.10 mph94%30.04 "Hg6 mi
3:20 PM63 °FLight rain. Partly sunny.9 mph94%30.04 "Hg6 mi
2:50 PM63 °FLight rain. Partly sunny.8 mph94%30.04 "Hg4 mi
2:20 PM61 °FLight rain. Partly sunny.8 mph94%30.04 "Hg4 mi
1:50 PM63 °FPartly sunny.9 mph83%30.04 "HgN/A
1:20 PM63 °FPartly sunny.9 mph83%30.04 "HgN/A
12:50 PM61 °FPartly sunny.12 mph88%30.04 "HgN/A
12:20 PM61 °FPartly sunny.12 mph83%30.04 "HgN/A
11:50 AM61 °FPartly sunny.10 mph83%30.04 "HgN/A
11:20 AM61 °FPartly sunny.12 mph83%30.04 "HgN/A
10:50 AM61 °FPartly sunny.12 mph83%30.04 "HgN/A
10:20 AM61 °FPartly sunny.10 mph83%30.04 "HgN/A
Weather by CustomWeather, © 2016

See weather overviewHow to use our weather pages